Weather in Bolshaya Luka

Russia / Penza Oblast     53°42′12″N   42°54′24″E
temp.,
°C
wind,
m/s
gust,
m/s
humid.,
%
clouds,
%
prec.,
mm/h
press.,
hPa
HPBL,
m
29 june, wed
wed2900:00+12ene22770 0.0 102114
03:00+10nne22790 0.0 102114
06:00+12nne34770 0.0 1022160
09:00+16nne34590 0.0 1021828
12:00+18nne44490 0.0 10211657
15:00+19ne34498 0.0 10201640
18:00+18ene23595 0.0 10191082
21:00+13sse00700 0.0 101910
30 june, thu
thu3000:00+12nnw01770 0.0 101910
03:00+10w22819 0.0 101913
06:00+13nw237484 0.0 1018111
09:00+17nw3460100 0.0 1017590
12:00+20nnw4544100 0.0 10161991
15:00+21nw574216 0.0 10152370
18:00+20nnw485661 0.0 1014316
21:00+14nne346986 0.0 101543
1 july, fri
fri100:00+12nw3368100 0.0 101530
03:00+13nne366682 0.0 1015166
06:00+12nne487537 0.0 1016311
09:00+16nne57601 0.0 10171305
12:00+18nne684618 0.0 10172178
15:00+18nne79435 0.0 10172262
18:00+17ne59555 0.0 10181143
21:00+12n34675 0.0 101949
2 july, sat
sat200:00+10n34720 0.0 101944
03:00+9nnw367723 0.0 102099
06:00+11nnw38735 0.0 1019183
09:00+17nnw46545 0.0 1019660
12:00+21nnw464494 0.0 10171724
15:00+21nnw564939 0.0 10161811
18:00+15ne117895 0.1 101613
21:00+15s1174100 0.1 101515
3 july, sun
sun300:00+13s22875 0.0 101513
03:00+12ese22895 0.0 101517
06:00+14e23805 0.0 1016113
09:00+19ene23620 0.0 1017677
12:00+22e33490 0.0 10171476
15:00+23ene224723 0.0 10171789
18:00+23sse115260 0.0 10181423
21:00+18s226530 0.0 101912